W8WAK Weather Reports


Display with metric or nautical units.
time (UTC)temp
F
wind
direction
speed
MPH
gust
MPH
rain 1hr
in
rain 24hr
in
rain mn
in
humidity
%
barometer
mb
20260508210005 63 118 2.0 2.0 0.00 0.00 0.00 56 995.1
20260508205505 63 224 2.0 2.0 0.00 0.00 0.00 56 995.0
20260508205005 62 151 2.0 2.0 0.00 0.00 0.00 57 994.9
20260508204005 64 124 0.0 1.0 0.00 0.00 0.00 54 995.1
20260508203504 65 133 2.0 2.0 0.00 0.00 0.00 52 995.0
20260508203004 64 186 1.0 1.0 0.00 0.00 0.00 53 995.1
20260508202504 66 145 5.0 7.0 0.00 0.00 0.00 49 995.3
20260508202005 65 147 1.0 2.0 0.00 0.00 0.00 50 995.6
20260508201004 64 263 2.0 2.0 0.00 0.00 0.00 51 995.4
20260508200504 64 238 2.0 5.0 0.00 0.00 0.00 50 995.7
20260508200004 65 142 1.0 1.0 0.00 0.00 0.00 49 995.9
20260508195504 65 169 0.0 1.0 0.00 0.00 0.00 47 996.0
20260508195005 65 54 1.0 1.0 0.00 0.00 0.00 48 996.0
20260508194504 65 151 0.0 1.0 0.00 0.00 0.00 47 996.2
20260508194004 65 47 0.0 1.0 0.00 0.00 0.00 49 996.0
20260508193004 64 137 1.0 1.0 0.00 0.00 0.00 49 996.2
20260508192005 64 168 2.0 2.0 0.00 0.00 0.00 47 996.4
20260508191504 62 147 0.0 0.0 0.00 0.00 0.00 48 996.7
20260508191004 63 199 0.0 0.0 0.00 0.00 0.00 47 996.6
20260508190504 63 121 1.0 2.0 0.00 0.00 0.00 45 996.6
20260508190005 64 123 1.0 1.0 0.00 0.00 0.00 45 996.6
20260508185505 65 176 1.0 2.0 0.00 0.00 0.00 45 996.7
20260508185004 64 132 0.0 0.0 0.00 0.00 0.00 45 996.7
20260508184504 64 157 2.0 3.0 0.00 0.00 0.00 44 996.8
20260508184005 65 244 3.0 6.0 0.00 0.00 0.00 44 996.7
20260508183505 64 129 2.0 2.0 0.00 0.00 0.00 43 996.7
20260508183004 64 142 0.0 0.0 0.00 0.00 0.00 42 996.6
20260508182504 63 244 2.0 2.0 0.00 0.00 0.00 45 997.0
20260508182004 64 190 4.0 6.0 0.00 0.00 0.00 45 996.5
20260508181505 65 120 0.0 1.0 0.00 0.00 0.00 43 996.8
20260508180504 65 219 4.0 6.0 0.00 0.00 0.00 37 996.9
20260508180004 64 112 0.0 0.0 0.00 0.00 0.00 38 996.9
20260508175505 64 144 0.0 1.0 0.00 0.00 0.00 39 996.7
20260508175005 63 119 2.0 3.0 0.00 0.00 0.00 38 997.0
20260508174504 62 266 1.0 2.0 0.00 0.00 0.00 38 997.0
20260508174005 62 220 0.0 0.0 0.00 0.00 0.00 38 997.2
20260508172504 60 265 3.0 6.0 0.00 0.00 0.00 41 997.5
20260508172005 61 307 1.0 2.0 0.00 0.00 0.00 41 997.5
20260508171505 61 209 0.0 1.0 0.00 0.00 0.00 41 997.7
20260508171004 62 253 2.0 3.0 0.00 0.00 0.00 41 997.6
20260508170005 61 338 3.0 5.0 0.00 0.00 0.00 39 997.8
20260508165505 61 251 0.0 0.0 0.00 0.00 0.00 39 998.1
20260508165005 61 294 2.0 3.0 0.00 0.00 0.00 39 998.0
20260508164504 61 254 3.0 5.0 0.00 0.00 0.00 39 998.0
20260508164005 60 177 0.0 0.0 0.00 0.00 0.00 40 998.1
20260508163504 60 233 3.0 3.0 0.00 0.00 0.00 39 998.4
20260508163004 60 296 5.0 6.0 0.00 0.00 0.00 41 998.4
20260508162504 60 200 0.0 0.0 0.00 0.00 0.00 42 998.5
20260508162005 60 152 0.0 1.0 0.00 0.00 0.00 43 998.4
20260508161504 60 197 0.0 1.0 0.00 0.00 0.00 43 998.4
20260508161004 60 155 1.0 1.0 0.00 0.00 0.00 43 998.5
20260508160504 60 166 1.0 1.0 0.00 0.00 0.00 45 998.4
20260508160004 59 122 0.0 0.0 0.00 0.00 0.00 47 998.4
20260508154504 57 276 3.0 3.0 0.00 0.00 0.00 48 998.7
20260508154004 57 250 2.0 5.0 0.00 0.00 0.00 49 998.4
20260508153505 57 228 2.0 2.0 0.00 0.00 0.00 50 998.6
20260508152504 57 191 1.0 2.0 0.00 0.00 0.00 51 998.7
20260508152004 57 148 1.0 1.0 0.00 0.00 0.00 49 998.7
20260508151505 57 301 3.0 3.0 0.00 0.00 0.00 49 998.6
20260508151004 56 209 1.0 1.0 0.00 0.00 0.00 50 998.7
20260508150504 57 63 1.0 1.0 0.00 0.00 0.00 51 998.6
20260508145505 59 126 0.0 1.0 0.00 0.00 0.00 52 998.9
20260508145004 59 116 0.0 1.0 0.00 0.00 0.00 52 998.9
20260508144505 58 124 0.0 0.0 0.00 0.00 0.00 54 998.7
20260508144005 56 117 1.0 1.0 0.00 0.00 0.00 54 998.8
20260508143504 57 114 0.0 1.0 0.00 0.00 0.00 54 998.8
20260508143004 57 131 0.0 0.0 0.00 0.00 0.00 55 999.0
20260508142504 55 159 0.0 0.0 0.00 0.00 0.00 56 999.0
20260508142005 55 273 2.0 2.0 0.00 0.00 0.00 58 999.0
20260508141505 54 114 0.0 0.0 0.00 0.00 0.00 59 999.0
20260508141004 56 326 2.0 2.0 0.00 0.00 0.00 58 999.0
20260508140504 55 121 0.0 0.0 0.00 0.00 0.00 59 999.0
20260508140004 54 117 0.0 0.0 0.00 0.00 0.00 61 999.1
20260508135504 54 188 1.0 1.0 0.00 0.00 0.00 60 999.1
20260508135005 54 88 0.0 0.0 0.00 0.00 0.00 60 999.1
20260508134504 53 97 0.0 0.0 0.00 0.00 0.00 60 999.1
20260508134004 52 199 0.0 0.0 0.00 0.00 0.00 65 999.2
20260508133504 53 119 0.0 0.0 0.00 0.00 0.00 65 998.8
20260508133005 52 123 0.0 1.0 0.00 0.00 0.00 67 999.1
20260508132504 52 174 0.0 0.0 0.00 0.00 0.00 68 999.0
20260508132004 52 253 3.0 3.0 0.00 0.00 0.00 68 999.1
20260508131505 51 161 0.0 1.0 0.00 0.00 0.00 68 999.2
20260508131004 51 210 1.0 1.0 0.00 0.00 0.00 68 999.1
20260508130004 50 256 3.0 3.0 0.00 0.00 0.00 71 999.0
20260508125504 50 163 0.0 0.0 0.00 0.00 0.00 72 998.9
20260508125005 50 194 0.0 0.0 0.00 0.00 0.00 72 999.0
20260508124504 50 167 0.0 0.0 0.00 0.00 0.00 71 998.7
20260508123504 51 146 0.0 0.0 0.00 0.00 0.00 69 998.9
20260508123005 51 114 0.0 0.0 0.00 0.00 0.00 68 999.0
20260508122504 51 107 0.0 0.0 0.00 0.00 0.00 70 998.7
20260508122004 49 106 0.0 0.0 0.00 0.00 0.00 73 998.9
20260508121504 48 115 0.0 0.0 0.00 0.00 0.00 75 999.0
20260508121005 47 114 0.0 0.0 0.00 0.00 0.00 76 998.6
20260508120504 47 114 0.0 0.0 0.00 0.00 0.00 77 998.7
20260508120005 46 115 0.0 0.0 0.00 0.00 0.00 79 998.6
20260508115504 46 128 0.0 0.0 0.00 0.00 0.00 79 998.6
20260508115004 46 125 0.0 0.0 0.00 0.00 0.00 80 998.3
20260508114505 45 124 0.0 0.0 0.00 0.00 0.00 81 998.6
20260508114004 45 114 0.0 0.0 0.00 0.00 0.00 83 998.2
20260508113005 44 114 0.0 0.0 0.00 0.00 0.00 84 998.2
20260508112505 44 104 0.0 0.0 0.00 0.00 0.00 85 998.1
20260508112005 44 107 0.0 0.0 0.00 0.00 0.00 86 998.4
20260508111504 43 105 0.0 0.0 0.00 0.00 0.00 86 998.2
20260508111004 43 125 0.0 0.0 0.00 0.00 0.00 87 997.9
20260508110504 43 120 0.0 0.0 0.00 0.00 0.00 88 998.3
20260508110005 43 277 0.0 0.0 0.00 0.00 0.00 89 998.1
20260508104504 42 102 0.0 0.0 0.00 0.00 0.00 91 998.1
20260508104005 42 102 0.0 0.0 0.00 0.00 0.00 91 998.3
20260508103504 42 102 0.0 0.0 0.00 0.00 0.00 91 998.1
20260508103004 42 102 0.0 0.0 0.00 0.00 0.00 91 998.0
20260508102504 42 102 0.0 0.0 0.00 0.00 0.00 91 997.9
20260508102004 42 102 0.0 0.0 0.00 0.00 0.00 91 997.9
20260508101505 42 102 0.0 0.0 0.00 0.00 0.00 91 998.0
20260508100504 42 102 0.0 0.0 0.00 0.00 0.00 90 997.8
20260508100004 43 101 0.0 0.0 0.00 0.00 0.00 90 998.0
20260508095505 43 101 0.0 0.0 0.00 0.00 0.00 90 997.9
20260508095005 43 99 0.0 0.0 0.00 0.00 0.00 90 997.9
20260508094504 43 101 0.0 0.0 0.00 0.00 0.00 90 998.2
20260508094005 43 83 0.0 0.0 0.00 0.00 0.00 90 998.0
20260508093504 43 101 0.0 0.0 0.00 0.00 0.00 90 998.0
20260508093004 44 102 0.0 0.0 0.00 0.00 0.00 90 997.9
20260508092504 44 102 0.0 0.0 0.00 0.00 0.00 90 998.2
20260508092004 44 102 0.0 0.0 0.00 0.00 0.00 90 998.1
20260508091505 44 102 0.0 0.0 0.00 0.00 0.00 90 998.1
20260508091005 44 102 0.0 0.0 0.00 0.00 0.00 89 998.1
20260508090504 44 102 0.0 0.0 0.00 0.00 0.00 89 998.2
20260508090005 44 102 0.0 0.0 0.00 0.00 0.00 89 997.9
20260508085504 44 102 0.0 0.0 0.00 0.00 0.00 88 998.1
20260508085005 44 102 0.0 0.0 0.00 0.00 0.00 88 998.3
20260508084504 44 102 0.0 0.0 0.00 0.00 0.00 88 998.2
20260508084004 44 102 0.0 0.0 0.00 0.00 0.00 88 998.2
20260508083505 44 106 0.0 0.0 0.00 0.00 0.00 88 998.3
20260508083005 44 91 0.0 0.0 0.00 0.00 0.00 87 998.4
20260508082504 45 89 0.0 0.0 0.00 0.00 0.00 86 998.4
20260508082005 45 96 0.0 0.0 0.00 0.00 0.00 85 998.3
20260508081504 45 87 0.0 0.0 0.00 0.00 0.00 85 998.2
20260508081004 45 88 0.0 0.0 0.00 0.00 0.00 83 998.2
20260508080505 46 128 0.0 0.0 0.00 0.00 0.00 82 998.3
20260508080005 46 128 0.0 0.0 0.00 0.00 0.00 81 998.2
20260508075505 46 133 0.0 0.0 0.00 0.00 0.00 81 998.2
20260508074505 46 116 0.0 0.0 0.00 0.00 0.00 78 998.3
20260508074005 46 154 0.0 0.0 0.00 0.00 0.00 79 998.5
20260508073504 46 155 0.0 0.0 0.00 0.00 0.00 79 998.2
20260508073004 46 155 0.0 0.0 0.00 0.00 0.00 79 998.2
20260508072504 46 155 0.0 0.0 0.00 0.00 0.00 80 998.3
20260508072004 46 155 0.0 0.0 0.00 0.00 0.00 81 998.0
20260508071505 45 155 0.0 0.0 0.00 0.00 0.00 81 998.2
20260508071004 45 155 0.0 0.0 0.00 0.00 0.00 82 998.1
20260508070505 45 155 0.0 0.0 0.00 0.00 0.00 83 998.0
20260508065504 45 155 0.0 0.0 0.00 0.00 0.00 83 997.9
20260508065005 45 155 0.0 0.0 0.00 0.00 0.00 83 998.1
20260508064505 44 155 0.0 0.0 0.00 0.00 0.00 83 998.2
20260508063504 44 155 0.0 0.0 0.00 0.00 0.00 83 998.1
20260508063005 44 155 0.0 0.0 0.00 0.00 0.00 82 998.3
20260508062505 45 155 0.0 0.0 0.00 0.00 0.00 82 998.2
20260508062005 45 155 0.0 0.0 0.00 0.00 0.00 81 998.4
20260508061504 45 154 0.0 0.0 0.00 0.00 0.00 81 998.2
20260508061005 45 154 0.0 0.0 0.00 0.00 0.00 81 998.3
20260508060505 45 154 0.0 0.0 0.00 0.00 0.00 81 998.4
20260508060005 45 154 0.0 0.0 0.00 0.00 0.00 81 998.6
20260508055505 45 154 0.0 0.0 0.00 0.00 0.00 80 998.5
20260508055004 45 154 0.0 0.0 0.00 0.00 0.00 79 998.4
20260508054504 45 154 0.0 0.0 0.00 0.00 0.00 79 998.4
20260508054004 46 155 0.0 0.0 0.00 0.00 0.00 78 998.4
20260508053505 46 154 0.0 0.0 0.00 0.00 0.00 78 998.6
20260508053004 46 155 0.0 0.0 0.00 0.00 0.00 76 998.6
20260508052504 47 123 0.0 0.0 0.00 0.00 0.00 74 998.5
20260508052005 47 201 1.0 1.0 0.00 0.00 0.00 72 998.6
20260508051505 48 148 0.0 0.0 0.00 0.00 0.00 70 998.6
20260508051004 48 271 2.0 2.0 0.00 0.00 0.00 69 998.8
20260508050505 48 72 0.0 1.0 0.00 0.00 0.00 68 998.8
20260508050005 49 351 1.0 1.0 0.00 0.00 0.00 67 998.6
20260508045005 51 254 1.0 2.0 0.00 0.00 0.00 63 998.5
20260508044504 51 149 0.0 0.0 0.00 0.00 0.00 62 998.6
20260508044004 51 152 0.0 1.0 0.00 0.00 0.00 60 998.5
20260508042504 51 154 0.0 0.0 0.00 0.00 0.00 59 998.4
20260508042004 51 176 0.0 0.0 0.00 0.00 0.00 59 998.5
20260508041505 50 177 0.0 0.0 0.00 0.00 0.00 59 998.4
20260508041005 50 177 0.0 0.0 0.00 0.00 0.00 60 998.3
20260508040504 50 175 0.0 0.0 0.00 0.00 0.00 59 998.3
20260508035504 50 174 0.0 0.0 0.00 0.00 0.00 58 998.6
20260508035004 51 173 0.0 0.0 0.00 0.00 0.00 57 998.3
20260508034505 51 171 0.0 0.0 0.00 0.00 0.00 57 998.2
20260508033505 51 171 0.0 0.0 0.00 0.00 0.00 57 998.5
20260508032505 51 181 0.0 0.0 0.00 0.00 0.00 55 998.6
20260508032004 51 192 2.0 3.0 0.00 0.00 0.00 55 998.9
20260508031004 51 224 2.0 2.0 0.00 0.00 0.00 56 998.8
20260508030005 52 185 0.0 0.0 0.00 0.00 0.00 55 999.1
20260508025504 52 282 1.0 1.0 0.00 0.00 0.00 55 998.9
20260508025005 52 179 0.0 1.0 0.00 0.00 0.00 54 998.9
20260508024004 53 117 1.0 1.0 0.00 0.00 0.00 53 998.7
20260508023504 53 256 3.0 3.0 0.00 0.00 0.00 50 998.7
20260508023005 53 192 0.0 0.0 0.00 0.00 0.00 50 998.6
20260508022505 53 191 0.0 1.0 0.00 0.00 0.00 50 998.7
20260508022005 52 220 2.0 2.0 0.00 0.00 0.00 49 998.6
20260508021505 52 209 0.0 0.0 0.00 0.00 0.00 49 998.6
20260508021004 52 209 0.0 0.0 0.00 0.00 0.00 49 998.8
20260508020505 52 216 0.0 0.0 0.00 0.00 0.00 48 998.7
20260508015504 52 207 0.0 1.0 0.00 0.00 0.00 48 998.8
20260508015004 52 194 0.0 0.0 0.00 0.00 0.00 49 998.4
20260508014505 52 202 0.0 0.0 0.00 0.00 0.00 48 998.3
20260508014004 52 202 0.0 0.0 0.00 0.00 0.00 47 998.4
20260508013504 52 196 0.0 0.0 0.00 0.00 0.00 47 998.2
20260508013005 53 202 0.0 0.0 0.00 0.00 0.00 46 998.1
20260508012505 52 206 0.0 0.0 0.00 0.00 0.00 46 998.2
20260508012005 53 265 0.0 0.0 0.00 0.00 0.00 46 997.9
20260508010504 53 195 0.0 0.0 0.00 0.00 0.00 45 998.1
20260508005004 53 191 0.0 0.0 0.00 0.00 0.00 45 997.9
20260508004505 53 189 1.0 1.0 0.00 0.00 0.00 44 998.0
20260508004005 53 193 2.0 2.0 0.00 0.00 0.00 44 997.9
20260508003504 53 187 0.0 0.0 0.00 0.00 0.00 44 997.8
20260508003005 54 197 0.0 1.0 0.00 0.00 0.00 44 997.8
20260508002504 54 190 2.0 2.0 0.00 0.00 0.00 43 998.0
20260508002005 54 250 3.0 3.0 0.00 0.00 0.00 42 997.8
20260508001504 54 117 1.0 1.0 0.00 0.00 0.00 42 998.0
20260508001004 54 243 2.0 2.0 0.00 0.00 0.00 42 997.9
20260508000504 54 202 1.0 2.0 0.00 0.00 0.00 42 997.9
20260507235505 54 208 2.0 3.0 0.00 0.00 0.00 42 998.1
20260507235005 55 176 1.0 1.0 0.00 0.00 0.00 41 998.0
20260507234504 55 196 0.0 0.0 0.00 0.00 0.00 41 998.1
20260507234005 55 232 2.0 2.0 0.00 0.00 0.00 40 997.9
20260507233505 55 216 3.0 5.0 0.00 0.00 0.00 41 998.2
20260507233004 55 263 3.0 5.0 0.00 0.00 0.00 41 998.0
20260507232505 55 211 0.0 0.0 0.00 0.00 0.00 41 998.2
20260507232004 55 278 2.0 3.0 0.00 0.00 0.00 41 998.1
20260507231505 55 220 4.0 6.0 0.00 0.00 0.00 41 998.5
20260507230504 55 228 2.0 2.0 0.00 0.00 0.00 41 998.4
20260507230005 55 244 2.0 2.0 0.00 0.00 0.00 40 998.3
20260507225505 55 303 4.0 6.0 0.00 0.00 0.00 39 998.5
20260507225004 55 308 5.0 7.0 0.00 0.00 0.00 40 998.9
20260507224505 55 227 1.0 2.0 0.00 0.00 0.00 39 998.6
20260507223504 55 291 3.0 3.0 0.00 0.00 0.00 39 998.8
20260507222504 56 246 3.0 7.0 0.00 0.00 0.00 38 999.1
20260507222005 57 235 6.0 8.0 0.00 0.00 0.00 36 999.1
20260507221004 57 235 5.0 6.0 0.00 0.00 0.00 37 999.0
20260507220504 58 254 9.0 10.0 0.00 0.00 0.00 36 999.1
20260507220004 57 219 5.0 8.0 0.00 0.00 0.00 36 999.2
20260507215504 58 264 3.0 6.0 0.00 0.00 0.00 36 999.1
20260507215005 58 285 5.0 7.0 0.00 0.00 0.00 37 999.1
20260507214504 57 293 4.0 6.0 0.00 0.00 0.00 37 998.9
20260507213504 57 280 4.0 6.0 0.00 0.00 0.00 37 998.5
20260507213005 57 268 3.0 3.0 0.00 0.00 0.00 38 998.5
20260507212504 56 204 1.0 1.0 0.00 0.00 0.00 38 998.7
20260507211504 58 260 8.0 11.0 0.00 0.00 0.00 36 998.6
20260507211005 58 216 4.0 6.0 0.00 0.00 0.00 37 998.6